Weather observations for the past three days for
Mc Gregor - Isedor Iverson Airport
Imperial (Metric)
Date Time (cdt) Wind (mph) Vis. (mi.) Weather Sky Cond. Temperature (ºF) Relative Humidity Wind Chill (°F) Heat Index (°F) Pressure Precipitation (in)
Air Dwpt 6 hour altimeter (in) sea level (mb) 1 hr 3 hr 6 hr
Max. Min.
16 17:35 W 5 10.00 Overcast SCT017 SCT026 OVC050 77 68 74% 79 29.63 0.0
16 17:15 SW 6 10.00 Mostly Cloudy SCT017 BKN024 BKN030 77 69.8 79% 79 29.62 0.0
16 16:55 SW 6 10.00 Overcast SCT011 BKN029 OVC050 77 69.8 79% 79 29.62 0.0
16 16:35 SW 5 10.00 Overcast SCT009 SCT019 OVC050 75.2 71.6 89% 75 29.61 0.0
16 16:15 S 5 10.00 Overcast SCT017 BKN032 OVC050 73.4 69.8 89% 29.61 0.0
16 15:55 S 3 10.00 Overcast OVC015 71.6 69.8 94% 29.62 0.0
16 15:35 Calm 4.00 Overcast OVC013 71.6 68 88% 29.62 0.0
16 15:15 S 3 2.50 Overcast BKN017 OVC023 71.6 68 88% 29.62 0.0
16 14:55 S 3 3.00 Overcast BKN020 OVC025 71.6 68 88% 29.62 0.0 0.01
16 14:35 S 5 2.50 Overcast OVC016 71.6 68 88% 29.62 0.0
16 14:15 SW 5 7.00 Overcast OVC016 71.6 68 88% 29.62 0.0
16 13:55 S 7 10.00 Overcast OVC016 71.6 68 88% 29.62 0.0
16 13:35 S 6 10.00 Overcast OVC014 71.6 66.2 83% 29.61 0.0
16 13:15 S 8 10.00 Overcast OVC014 71.6 66.2 83% 29.6 0.0
16 12:55 S 8 10.00 Overcast OVC014 71.6 64.4 78% 29.6 0.0
16 12:35 S 7 10.00 Overcast OVC012 71.6 64.4 78% 29.6 0.0
16 12:15 S 9 10.00 Overcast OVC012 71.6 64.4 78% 29.6 0.0
16 11:55 S 9 10.00 Overcast OVC012 69.8 64.4 83% 29.6 0.0
16 11:35 SE 8 10.00 Overcast OVC012 69.8 64.4 83% 29.6 0.0
16 11:15 S 10 10.00 Overcast OVC012 69.8 64.4 83% 29.61 0.0
16 10:55 SE 12 10.00 Overcast OVC010 69.8 64.4 83% 29.61 0.0
16 10:35 SE 12 10.00 Overcast OVC010 69.8 64.4 83% 29.62 0.0
16 10:15 SE 8 10.00 Overcast OVC010 68 64.4 88% 29.64 0.0
16 09:55 SE 5 10.00 Overcast OVC010 68 62.6 83% 29.66 0.0
16 09:35 W 3 10.00 Overcast OVC010 66.2 62.6 88% 29.68 0.0
16 09:15 SW 7 10.00 Overcast OVC008 66.2 62.6 88% 29.68 0.0
16 08:55 S 5 10.00 Overcast OVC008 66.2 62.6 88% 29.64 0.0
16 08:35 S 8 10.00 Overcast OVC006 64.4 62.6 94% 29.62 0.0
16 08:15 S 8 10.00 Overcast OVC006 64.4 62.6 94% 29.62 0.0
16 07:55 S 9 10.00 Overcast OVC004 64.4 62.6 94% 29.63 0.0
16 07:35 S 8 10.00 Overcast OVC004 62.6 62.6 100% 29.62 0.0
16 07:15 SE 9 G 16 7.00 Overcast OVC002 62.6 62.6 100% 29.61 0.0
16 06:55 SE 10 3.00 Overcast OVC002 62.6 60.8 94% 29.62 0.0
16 06:35 SE 8 5.00 Overcast OVC004 62.6 60.8 94% 29.63 0.0
16 06:15 S 6 7.00 Overcast OVC004 62.6 60.8 94% 29.65 0.0
16 05:55 SE 6 7.00 Overcast OVC004 62.6 60.8 94% 29.65 0.0
16 05:35 S 7 7.00 Overcast OVC004 62.6 60.8 94% 29.66 0.0
16 05:15 S 7 4.00 Overcast OVC004 62.6 60.8 94% 29.67 0.0
16 04:55 S 5 4.00 Overcast OVC004 62.6 60.8 94% 29.67 0.0
16 04:35 S 6 2.50 Overcast OVC004 60.8 60.8 100% 29.65 0.0
16 04:15 SE 8 5.00 Overcast OVC004 60.8 59 94% 29.65 0.0
16 03:55 SE 7 10.00 Overcast OVC006 60.8 59 94% 29.65 0.0
16 03:35 SE 7 10.00 Overcast OVC006 60.8 59 94% 29.66 0.0
16 03:15 SE 8 10.00 Overcast OVC008 60.8 59 94% 29.67 0.0
16 02:55 SE 10 10.00 Overcast OVC008 60.8 59 94% 29.69 0.0
16 02:35 SE 6 10.00 Overcast OVC008 60.8 59 94% 29.71 0.0
16 02:15 SE 7 10.00 Overcast OVC010 60.8 59 94% 29.71 0.0
16 01:55 S 8 10.00 Overcast BKN010 OVC016 60.8 59 94% 29.72 0.0
16 01:35 SE 8 10.00 Overcast SCT010 BKN014 OVC039 60.8 59 94% 29.73 0.0
16 01:15 SE 8 10.00 Overcast SCT010 BKN040 OVC075 60.8 59 94% 29.73 0.0
16 00:55 SE 9 10.00 Overcast BKN010 BKN043 OVC075 59 57.2 94% 29.75 0.0
16 00:35 SE 10 10.00 Overcast SCT010 BKN043 OVC090 59 57.2 94% 29.76 0.0
16 00:15 SE 7 10.00 Overcast BKN010 BKN014 OVC041 59 57.2 94% 29.77 0.0
15 23:55 SE 8 10.00 Overcast BKN010 OVC013 59 57.2 94% 29.78 0.0
15 23:35 SE 7 10.00 Overcast BKN007 OVC012 59 57.2 94% 29.78 0.0
15 23:15 SE 8 10.00 Overcast BKN007 OVC012 59 57.2 94% 29.79 0.0
15 22:55 SE 7 10.00 Overcast OVC007 59 57.2 94% 29.79 0.0
15 22:35 SE 8 10.00 Overcast OVC007 59 57.2 94% 29.8 0.0
15 22:15 SE 10 10.00 Overcast OVC007 59 57.2 94% 29.8 0.0
15 21:55 SE 9 10.00 Overcast OVC007 59 57.2 94% 29.81 0.0
15 21:35 SE 9 10.00 Overcast OVC007 59 57.2 94% 29.81 0.0
15 21:15 SE 8 10.00 Overcast OVC009 59 55.4 88% 29.81 0.0
15 20:55 SE 12 G 16 10.00 Overcast OVC009 59 55.4 88% 29.82 0.0
15 20:35 SE 12 7.00 Overcast OVC009 59 55.4 88% 29.82 0.0
15 20:15 SE 13 G 18 5.00 Overcast BKN009 OVC013 59 55.4 88% 29.83 0.0
15 19:55 SE 12 G 18 5.00 Overcast BKN009 OVC034 59 57.2 94% 29.84 0.0 0.02
15 19:35 SE 13 G 17 5.00 Overcast BKN009 BKN014 OVC034 59 57.2 94% 29.85 0.0 0.02
15 19:15 SE 13 G 17 4.00 Overcast BKN010 OVC014 59 57.2 94% 29.86 0.0 0.01
15 18:55 SE 10 G 17 10.00 Overcast BKN010 OVC015 59 57.2 94% 29.87 0.0 0.02
15 18:35 SE 10 G 17 10.00 Overcast OVC012 60.8 57.2 88% 29.88 0.0 0.01
15 18:15 SE 12 G 20 10.00 Overcast SCT010 BKN015 OVC024 60.8 57.2 88% 29.88 0.0
15 17:55 SE 13 G 21 10.00 Overcast SCT013 BKN018 OVC060 60.8 59 94% 29.88 0.0 0.01
15 17:35 SE 14 10.00 Overcast SCT017 BKN055 OVC070 62.6 59 88% 29.89 0.0
15 17:15 S 14 G 26 10.00 Overcast SCT017 SCT041 OVC080 62.6 57.2 83% 29.89 0.0
15 16:55 SE 16 10.00 Overcast OVC090 64.4 59 83% 29.9 0.0
15 16:35 SE 14 G 20 10.00 Overcast OVC080 64.4 57.2 78% 29.9 0.0
15 16:15 SE 13 G 22 10.00 Overcast OVC090 66.2 57.2 73% 29.9 0.0
15 15:55 SE 17 G 23 10.00 Mostly Cloudy BKN100 68 59 73% 29.91 0.0
15 15:35 S 15 G 22 10.00 Fair CLR 69.8 57.2 64% 29.9 0.0
15 15:15 S 15 G 23 10.00 Fair CLR 69.8 55.4 60% 29.9 0.0
15 14:55 S 15 G 24 10.00 Fair CLR 71.6 55.4 57% 29.91 0.0
15 14:35 S 15 G 20 10.00 Fair CLR 73.4 59 61% 29.91 0.0
15 14:15 S 13 G 17 10.00 Fair CLR 73.4 57.2 57% 29.91 0.0
15 13:55 S 15 G 20 10.00 Fair CLR 73.4 57.2 57% 29.92 0.0
15 13:35 SE 13 G 16 10.00 Fair CLR 73.4 57.2 57% 29.92 0.0
15 13:15 SE 16 10.00 Fair CLR 73.4 57.2 57% 29.93 0.0
15 12:55 S 14 10.00 Fair CLR 73.4 55.4 53% 29.93 0.0
15 12:35 S 10 G 16 10.00 Fair CLR 73.4 55.4 53% 29.93 0.0
15 12:15 SE 8 10.00 Partly Cloudy SCT120 71.6 59 65% 29.94 0.0
15 11:55 SE 10 G 16 10.00 Mostly Cloudy BKN120 69.8 59 69% 29.95 0.0
15 11:35 SE 10 10.00 Fair CLR 68 57.2 69% 29.96 0.0
15 11:15 SE 9 10.00 Fair CLR 64.4 55.4 73% 29.97 0.0
15 10:55 SE 9 10.00 Partly Cloudy SCT120 62.6 55.4 77% 29.99 0.0
15 10:35 SE 10 10.00 Mostly Cloudy BKN110 62.6 53.6 73% 29.99 0.0
15 10:15 E 7 10.00 Overcast OVC110 62.6 53.6 73% 30 0.0
15 09:55 SE 6 10.00 Overcast OVC100 62.6 53.6 73% 30 0.0
15 09:35 E 5 10.00 Overcast OVC100 60.8 53.6 77% 30 0.0
15 09:15 SE 6 10.00 Overcast OVC100 60.8 53.6 77% 30.01 0.0
15 08:55 SE 7 10.00 Overcast OVC100 60.8 53.6 77% 30.01 0.0
15 08:35 E 6 10.00 Overcast OVC110 60.8 53.6 77% 30.01 0.0
15 08:15 E 7 10.00 Overcast OVC110 59 51.8 77% 30.02 0.0
15 07:55 NE 3 10.00 Mostly Cloudy SCT090 BKN110 57.2 51.8 82% 30.02 0.0
15 07:35 E 5 10.00 Mostly Cloudy SCT100 BKN120 55.4 51.8 88% 30.02 0.0
15 07:15 E 5 10.00 Mostly Cloudy SCT100 BKN120 55.4 50 82% 30.02 0.0
15 06:55 E 3 10.00 Overcast SCT100 OVC120 55.4 50 82% 30.03 0.0
15 06:35 SE 3 10.00 Overcast BKN100 OVC120 53.6 50 88% 30.02 0.0
15 06:15 E 3 10.00 Mostly Cloudy BKN100 BKN120 53.6 50 88% 30.03 0.0
15 05:55 SE 3 10.00 Mostly Cloudy BKN100 BKN120 53.6 50 88% 30.02 0.0
15 05:35 SE 3 10.00 Overcast OVC100 53.6 50 88% 30.03 0.0
15 05:15 Calm 10.00 Mostly Cloudy BKN100 51.8 50 94% 30.03 0.0
15 04:55 E 3 10.00 Fair CLR 51.8 50 94% 30.02 0.0
15 04:35 Calm 10.00 Fair CLR 51.8 50 94% 30.02 0.0
15 04:15 Calm 10.00 Partly Cloudy SCT100 53.6 50 88% 30.03 0.0
15 03:55 SE 3 10.00 Mostly Cloudy BKN110 53.6 50 88% 30.04 0.0
15 03:35 Calm 10.00 Partly Cloudy SCT110 53.6 50 88% 30.04 0.0
15 03:15 Calm 10.00 Fair CLR 53.6 50 88% 30.03 0.0
15 02:55 Calm 10.00 Fair CLR 53.6 50 88% 30.02 0.0
15 02:35 E 3 10.00 Fair CLR 53.6 50 88% 30.01 0.0
15 02:15 E 5 10.00 Partly Cloudy SCT120 55.4 51.8 88% 30.03 0.0
15 01:55 Calm 10.00 Fair CLR 55.4 51.8 88% 30.05 0.0
15 01:35 Calm 10.00 Fair CLR 55.4 51.8 88% 30.05 0.0
15 01:15 Calm 10.00 Fair CLR 55.4 51.8 88% 30.05 0.0
15 00:55 Calm 10.00 Fair CLR 55.4 51.8 88% 30.04 0.0
15 00:35 E 6 10.00 Fair CLR 57.2 51.8 82% 30.03 0.0
15 00:15 Calm 10.00 Fair CLR 59 51.8 77% 30.05 0.0
14 23:55 E 3 10.00 Fair CLR 59 51.8 77% 30.04 0.0
14 23:35 Calm 10.00 Fair CLR 59 53.6 82% 30.04 0.0
14 23:15 E 5 10.00 Fair CLR 59 53.6 82% 30.05 0.0
14 22:55 Calm 10.00 Fair CLR 60.8 53.6 77% 30.05 0.0
14 22:35 Calm 10.00 Fair CLR 62.6 53.6 73% 30.05 0.0
14 22:15 Calm 10.00 Fair CLR 60.8 53.6 77% 30.06 0.0
14 21:55 Calm 10.00 Fair CLR 62.6 55.4 77% 30.05 0.0
14 21:35 Calm 10.00 Fair CLR 68 53.6 60% 30.04 0.0
14 21:15 Calm 10.00 Fair CLR 68 53.6 60% 30.04 0.0
14 20:55 Calm 10.00 Fair CLR 69.8 53.6 57% 30.03 0.0
14 20:35 SW 3 10.00 Fair CLR 71.6 51.8 50% 30.04 0.0
14 20:15 SW 5 10.00 Fair CLR 73.4 51.8 47% 30.04 0.0
14 19:55 SW 5 10.00 Fair CLR 73.4 50 44% 30.04 0.0
14 19:35 Calm 10.00 Fair CLR 73.4 50 44% 30.03 0.0
14 19:15 SW 3 10.00 Fair CLR 73.4 50 44% 30.04 0.0
14 18:35 Calm 10.00 Fair CLR 77 48.2 36% 78 30.03 0.0
14 18:15 SW 3 10.00 Fair CLR 73.4 50 44% 30.03 0.0
14 17:55 S 5 10.00 Fair CLR 77 50 39% 78 30.03 0.0
14 17:35 S 3 10.00 Partly Cloudy SCT065 73.4 50 44% 30.04 0.0
14 17:15 SW 5 10.00 Partly Cloudy SCT065 77 50 39% 78 30.04 0.0
14 16:55 Calm 10.00 Partly Cloudy SCT065 77 50 39% 78 30.05 0.0
14 16:35 W 3 10.00 Fair CLR 77 46.4 34% 78 30.05 0.0
14 16:15 Calm 10.00 Partly Cloudy SCT060 77 50 39% 78 30.05 0.0
14 15:55 SW 5 10.00 Mostly Cloudy BKN060 77 50 39% 78 30.06 0.0
14 15:35 SE 5 10.00 Partly Cloudy SCT075 77 50 39% 78 30.06 0.0
14 15:15 SE 6 10.00 Partly Cloudy SCT075 77 51.8 42% 78 30.06 0.0
14 14:55 SE 5 10.00 Partly Cloudy SCT065 73.4 50 44% 30.07 0.0
14 14:35 Calm 10.00 Mostly Cloudy BKN060 BKN075 73.4 50 44% 30.08 0.0
14 14:15 Calm 10.00 Mostly Cloudy BKN060 73.4 48.2 41% 30.08 0.0
14 13:55 E 3 10.00 Partly Cloudy SCT060 73.4 50 44% 30.07 0.0
14 13:35 NE 3 10.00 Partly Cloudy SCT050 73.4 50 44% 30.07 0.0
14 13:15 Calm 10.00 Mostly Cloudy BKN050 71.6 50 47% 30.08 0.0
14 12:55 N 3 10.00 Partly Cloudy SCT050 71.6 50 47% 30.09 0.0
14 12:35 N 5 10.00 Partly Cloudy SCT050 71.6 50 47% 30.08 0.0
14 12:15 NE 5 10.00 Partly Cloudy SCT050 71.6 50 47% 30.09 0.0
14 11:55 Calm 10.00 Partly Cloudy SCT050 71.6 48.2 44% 30.1 0.0
14 11:35 Calm 10.00 Fair CLR 71.6 50 47% 30.1 0.0
14 11:15 Calm 10.00 Partly Cloudy SCT042 69.8 51.8 53% 30.09 0.0
14 10:55 NE 3 10.00 Partly Cloudy SCT042 69.8 51.8 53% 30.09 0.0
14 10:35 Calm 10.00 Fair CLR 69.8 50 50% 30.09 0.0
14 10:15 Calm 10.00 Fair CLR 68 51.8 56% 30.09 0.0
14 09:55 W 5 10.00 Fair CLR 68 50 53% 30.09 0.0
14 09:35 NE 3 10.00 Fair CLR 66.2 51.8 60% 30.09 0.0
14 09:15 N 3 10.00 Fair CLR 64.4 53.6 68% 30.09 0.0
14 08:55 N 3 10.00 Fair CLR 64.4 53.6 68% 30.09 0.0
14 08:35 Calm 10.00 Fair CLR 62.6 53.6 73% 30.1 0.0
14 08:15 Calm 10.00 Fair CLR 62.6 53.6 73% 30.1 0.0
14 07:55 Calm 10.00 Fair CLR 59 53.6 82% 30.09 0.0
14 07:35 Calm 10.00 Fair CLR 59 53.6 82% 30.09 0.0
14 07:15 N 3 10.00 Fair CLR 55.4 51.8 88% 30.08 0.0
14 06:55 NW 3 10.00 Fair CLR 53.6 51.8 94% 30.08 0.0
14 06:35 Calm 10.00 Fair CLR 53.6 51.8 94% 30.07 0.0
14 06:15 Calm 10.00 Fair CLR 50 48.2 94% 30.07 0.0
14 05:55 Calm 10.00 Fair CLR 50 48.2 94% 30.06 0.0
14 05:35 Calm 10.00 Fair CLR 50 48.2 94% 30.05 0.0
14 05:15 Calm 10.00 Fair CLR 50 48.2 94% 30.04 0.0
14 04:55 Calm 10.00 Fair CLR 51.8 50 94% 30.04 0.0
14 04:35 NW 3 10.00 Fair CLR 51.8 48.2 88% 30.02 0.0
14 04:15 NW 3 10.00 Fair CLR 51.8 48.2 88% 30.02 0.0
14 03:55 Calm 10.00 Fair CLR 51.8 48.2 88% 30.02 0.0
14 03:35 Calm 10.00 Fair CLR 53.6 50 88% 30.01 0.0
14 03:15 NW 3 10.00 Fair CLR 53.6 50 88% 30 0.0
14 02:55 NW 3 10.00 Fair CLR 53.6 50 88% 30 0.0
14 02:35 NW 3 10.00 Fair CLR 53.6 50 88% 30 0.0
14 02:15 NW 3 10.00 Fair CLR 53.6 50 88% 29.99 0.0
14 01:55 NW 3 10.00 Fair CLR 55.4 50 82% 29.99 0.0
14 01:35 Calm 10.00 Fair CLR 55.4 50 82% 29.99 0.0
14 01:15 NW 3 10.00 Fair CLR 55.4 50 82% 29.98 0.0
14 00:55 NW 5 10.00 Fair CLR 55.4 50 82% 29.98 0.0
14 00:35 NW 3 10.00 Fair CLR 55.4 50 82% 29.97 0.0
14 00:15 NW 5 10.00 Fair CLR 57.2 50 77% 29.96 0.0
13 23:55 NW 5 10.00 Fair CLR 59 50 72% 29.96 0.0
13 23:35 NW 3 10.00 Fair CLR 59 50 72% 29.96 0.0
13 23:15 NW 5 10.00 Fair CLR 62.6 50 64% 29.95 0.0
13 22:55 NW 5 10.00 Fair CLR 62.6 50 64% 29.95 0.0
13 22:35 NW 5 10.00 Fair CLR 64.4 50 60% 29.95 0.0
13 22:15 NW 5 10.00 Partly Cloudy SCT080 62.6 50 64% 29.94 0.0
13 21:55 NW 5 10.00 Mostly Cloudy SCT070 BKN080 64.4 50 60% 29.93 0.0
13 21:35 NW 5 10.00 Partly Cloudy SCT070 SCT080 66.2 50 56% 29.92 0.0
13 21:15 NW 3 10.00 Partly Cloudy SCT070 SCT080 68 50 53% 29.91 0.0
13 20:55 NW 7 10.00 Fair CLR 69.8 50 50% 29.9 0.0
13 20:35 NW 8 10.00 Fair CLR 69.8 48.2 46% 29.89 0.0
13 20:15 NW 9 10.00 Fair CLR 71.6 48.2 44% 29.89 0.0
13 19:55 NW 8 G 16 10.00 Partly Cloudy SCT090 73.4 46.4 38% 29.88 0.0
13 19:35 NW 8 10.00 Partly Cloudy SCT090 73.4 46.4 38% 29.87 0.0
13 19:15 NW 13 G 18 10.00 Partly Cloudy SCT090 77 44.6 32% 78 29.87 0.0
13 18:55 NW 13 G 21 10.00 Partly Cloudy SCT090 77 44.6 32% 78 29.86 0.0
13 18:35 NW 13 10.00 Partly Cloudy SCT090 SCT120 77 44.6 32% 78 29.86 0.0
13 18:15 NW 14 G 17 10.00 Mostly Cloudy BKN090 BKN120 77 44.6 32% 78 29.85 0.0
13 17:55 W 12 G 16 10.00 Mostly Cloudy SCT090 BKN110 77 44.6 32% 78 29.85 0.0
Date Time (cdt) Wind (mph) Vis. (mi.) Weather Sky Cond. Air Dwpt Max. Min. Relative Humidity Wind Chill (°F) Heat Index (°F) altimeter (in) sea level (mb) 1 hr 3 hr 6 hr
6 hour
Temperature (ºF) Pressure Precipitation (in)